Stations météo

réclame
Mon MeteoGroup
Villanueva De Cordoba, Espagne (8346): Température de l'air & dewpoint: 16.01.2018 11:00:00 - 22.01.2018 11:00:00 (CET)Villanueva De Cordoba, Espagne (8346): Vitesse du vent & gusts: 16.01.2018 11:00:00 - 22.01.2018 11:00:00 (CET)Villanueva De Cordoba, Espagne (8346): Direction du vent: 16.01.2018 11:00:00 - 22.01.2018 11:00:00 (CET)Villanueva De Cordoba, Espagne (8346): reduced air pressure: 16.01.2018 11:00:00 - 22.01.2018 11:00:00 (CET)Villanueva De Cordoba, Espagne (8346): visibility: 16.01.2018 11:00:00 - 22.01.2018 11:00:00 (CET)Villanueva De Cordoba, Espagne (8346): Ensoleillement: 16.01.2018 11:00:00 - 22.01.2018 11:00:00 (CET)Villanueva De Cordoba, Espagne (8346): Quantités de précipitations: 16.01.2018 11:00:00 - 22.01.2018 11:00:00 (CET)
Date & Time tt [°C] td [°C] ff [km/h] ff [knt] fx [km/h] fx [knt] dd ppp [hPa] vv [km] sd [min] rr [mm]
22.01.2018 11:00:00 - - - - - - - - - - -
22.01.2018 10:00:00 6,5 5,6 7 4 10 5 NNE 1031,0 20 33 0,0
22.01.2018 09:00:00 5,1 4,3 7 4 12 6 NNE 1031,3 5 0 0,0
22.01.2018 08:00:00 3,8 2,9 7 4 12 6 NNE 1031,8 0,2 0 0,2
22.01.2018 07:00:00 4,8 3,9 5 3 14 8 N 1031,3 0,3 0 -
22.01.2018 06:00:00 6,3 5,3 5 3 14 7 NNW 1030,5 0,1 0 0,0
22.01.2018 05:00:00 6,4 5,2 5 3 11 6 NW - - 0 0,0
22.01.2018 04:00:00 6,8 5,6 6 3 16 8 N 1030,7 9 0 0,0
22.01.2018 03:00:00 7,1 5,9 11 6 19 11 NW 1030,8 13 0 0,0
22.01.2018 02:00:00 6,6 5,0 8 4 16 9 N 1031,5 18 0 0,0
22.01.2018 01:00:00 7,2 5,6 9 5 20 11 NNW 1031,8 20 0 -
22.01.2018 00:00:00 7,0 5,5 9 5 20 11 N 1032,2 16 0 0,0
21.01.2018 23:00:00 7,8 5,9 9 5 16 8 NNW 1031,8 20 0 0,0
21.01.2018 22:00:00 8,1 5,9 5 3 12 6 N 1031,9 20 0 0,0
21.01.2018 21:00:00 8,6 6,1 9 5 13 7 NW 1031,5 20 0 0,0
21.01.2018 20:00:00 9,2 5,8 4 2 13 7 NW 1031,1 20 0 0,0
21.01.2018 19:00:00 10,0 5,9 7 4 14 8 NW 1030,2 20 23 -
21.01.2018 18:00:00 12,6 6,4 8 4 17 9 WNW 1029,0 20 30 0,0
21.01.2018 17:00:00 14,4 7,0 8 5 20 11 WNW 1028,3 20 56 0,0
21.01.2018 16:00:00 14,4 5,8 9 5 19 11 NW 1028,1 20 60 0,0
21.01.2018 15:00:00 14,6 6,7 6 4 18 10 NNW 1028,5 18 60 0,0
21.01.2018 14:00:00 13,1 5,3 8 4 14 8 NNW 1029,8 20 60 0,0
21.01.2018 13:00:00 11,4 5,8 9 5 17 9 WNW 1031,2 20 60 -
21.01.2018 12:00:00 10,2 5,0 4 2 15 8 NNW 1032,1 20 60 0,0
21.01.2018 11:00:00 9,0 5,0 3 2 14 8 NNW 1032,2 20 60 0,0
21.01.2018 10:00:00 6,5 3,8 4 2 17 9 N 1032,1 20 33 0,0
21.01.2018 09:00:00 4,1 2,3 9 5 20 11 N 1032,1 20 0 0,0
21.01.2018 08:00:00 4,4 2,7 10 5 19 10 NNW 1031,8 20 0 0,0
21.01.2018 07:00:00 4,5 2,7 10 5 17 9 NW 1031,3 17 0 -
21.01.2018 06:00:00 5,0 2,7 9 5 24 13 NNW 1030,8 20 0 0,0
21.01.2018 05:00:00 5,2 1,9 11 6 21 12 NNW 1031,0 20 0 0,0
21.01.2018 04:00:00 5,8 1,5 11 6 20 11 NW 1031,1 20 0 0,0
21.01.2018 03:00:00 6,1 0,9 8 4 12 6 WNW 1031,2 20 0 0,0
21.01.2018 02:00:00 5,5 -0,7 7 4 10 6 SSW 1031,9 20 0 0,0
21.01.2018 01:00:00 - - - - - - - - - - -
21.01.2018 00:00:00 7,2 -1,0 8 4 11 6 W 1031,5 20 0 0,0
20.01.2018 23:00:00 7,4 -1,0 8 5 14 7 W 1031,2 20 0 0,0
20.01.2018 22:00:00 8,0 -2,5 9 5 14 8 W 1030,7 20 0 0,0
20.01.2018 21:00:00 8,4 -1,7 9 5 13 7 W 1030,5 20 0 0,0
20.01.2018 20:00:00 9,2 -0,5 6 3 16 9 NW 1030,0 20 0 0,0
20.01.2018 19:00:00 10,2 -0,3 7 4 23 12 NW 1029,0 20 19 -
20.01.2018 18:00:00 12,5 -1,7 13 7 22 12 WNW 1027,9 20 26 0,0
20.01.2018 17:00:00 13,9 -0,3 12 6 24 13 WNW 1027,3 20 57 0,0
20.01.2018 16:00:00 14,5 -1,7 13 7 23 12 WNW 1026,8 20 60 0,0
20.01.2018 15:00:00 13,8 0,0 11 6 25 14 NW 1027,2 20 56 0,0
20.01.2018 14:00:00 13,5 3,0 9 5 16 9 WNW 1027,9 20 60 0,0
20.01.2018 13:00:00 13,0 5,0 9 5 14 8 W 1028,8 20 56 -
20.01.2018 12:00:00 12,7 4,6 6 3 11 6 W 1029,2 20 60 0,0
20.01.2018 11:00:00 12,4 4,8 3 1 7 4 SSW 1028,9 20 60 0,0
20.01.2018 10:00:00 7,9 4,5 5 3 9 5 NW 1030,0 20 32 0,0
20.01.2018 09:00:00 5,6 2,9 6 3 11 6 N 1030,2 20 0 0,0
20.01.2018 08:00:00 5,6 2,9 7 4 12 7 N 1029,6 20 0 0,0
20.01.2018 07:00:00 5,4 2,5 7 4 14 7 NNW 1029,0 20 0 -
20.01.2018 06:00:00 5,7 2,3 7 4 11 6 NNW 1028,3 20 0 0,0
20.01.2018 05:00:00 6,9 2,7 3 2 5 3 NNW 1027,2 20 0 0,0
20.01.2018 04:00:00 6,9 3,0 4 2 11 6 N 1027,7 20 0 0,0
20.01.2018 03:00:00 7,3 2,3 6 4 11 6 NNW 1027,9 20 0 0,0
20.01.2018 02:00:00 6,3 1,7 3 2 7 4 WNW 1027,5 20 0 0,0
20.01.2018 01:00:00 - - - - - - - - - - -
20.01.2018 00:00:00 7,7 2,3 9 5 13 7 NW 1027,4 20 0 0,0
19.01.2018 23:00:00 8,1 2,3 9 5 16 8 NW 1026,9 20 0 0,0
19.01.2018 22:00:00 8,1 3,0 7 4 14 8 NW 1026,4 20 0 0,0
19.01.2018 21:00:00 8,8 2,7 8 4 19 11 NNW 1025,4 20 0 0,0
19.01.2018 20:00:00 10,0 3,0 10 5 19 10 NNW 1024,5 20 0 0,0
19.01.2018 19:00:00 11,0 3,0 7 4 16 8 NW 1023,6 20 21 -
19.01.2018 18:00:00 13,9 3,0 6 4 22 12 WNW 1021,3 20 24 0,0
19.01.2018 17:00:00 15,2 1,7 11 6 30 16 N 1020,4 20 60 0,0
19.01.2018 16:00:00 15,7 1,5 6 3 20 11 NE 1019,5 20 60 0,0
19.01.2018 15:00:00 15,0 1,1 10 6 25 14 NNE 1019,7 20 60 0,0
19.01.2018 14:00:00 13,7 3,4 12 7 28 15 NNW 1020,5 20 60 0,0
19.01.2018 13:00:00 12,2 4,5 12 6 21 11 NW 1021,0 20 60 -
19.01.2018 12:00:00 11,7 2,5 3 1 13 7 NNW 1021,0 20 60 0,0
19.01.2018 11:00:00 7,9 2,3 6 3 20 11 N 1021,8 20 16 0,0
19.01.2018 10:00:00 7,1 1,9 6 3 14 8 N 1021,6 20 0 0,0
19.01.2018 09:00:00 6,4 1,7 9 5 16 9 N 1021,3 20 0 0,0
19.01.2018 08:00:00 6,1 1,9 8 4 15 8 N 1020,8 20 0 0,0
19.01.2018 07:00:00 6,4 1,9 6 4 11 6 N 1020,5 20 0 -
19.01.2018 06:00:00 6,2 2,1 6 3 11 6 N 1020,2 20 0 0,0
19.01.2018 05:00:00 6,4 2,3 7 4 12 6 NE 1020,2 20 0 0,0
19.01.2018 04:00:00 6,4 2,5 4 2 10 5 NE 1020,4 20 0 0,0
19.01.2018 03:00:00 7,1 2,9 6 4 14 8 NE 1020,4 20 0 0,0
19.01.2018 02:00:00 7,3 2,7 7 4 18 10 NNW 1020,6 20 0 0,0
19.01.2018 01:00:00 7,4 2,3 6 4 11 6 N 1020,6 20 0 -
19.01.2018 00:00:00 8,4 2,3 4 2 8 4 NNW 1020,8 20 0 0,0
18.01.2018 23:00:00 9,0 2,9 4 2 7 4 N 1020,5 20 0 0,0
18.01.2018 22:00:00 8,3 2,7 5 3 8 4 NNE 1020,9 20 0 0,0
18.01.2018 21:00:00 9,8 3,0 5 3 8 4 ESE 1020,9 20 0 0,0
18.01.2018 20:00:00 8,8 3,4 4 2 10 6 SSW 1021,2 20 0 0,0
18.01.2018 19:00:00 9,8 3,9 7 4 13 7 SSE 1021,2 20 0 -
18.01.2018 18:00:00 12,3 4,5 8 4 12 6 SSE 1020,2 20 4 0,0
18.01.2018 17:00:00 14,6 3,4 5 3 11 6 NW 1019,3 20 52 0,0
18.01.2018 16:00:00 14,9 2,5 7 4 15 8 NW 1019,0 20 49 0,0
18.01.2018 15:00:00 14,6 2,5 6 4 16 9 NNW 1019,3 20 51 0,0
18.01.2018 14:00:00 14,8 2,1 8 4 18 10 NW 1020,2 20 60 0,0
18.01.2018 13:00:00 15,5 0,2 3 2 10 5 NNE 1021,2 20 60 -
18.01.2018 12:00:00 14,4 -1,0 5 3 12 7 E 1022,3 20 60 0,0
18.01.2018 11:00:00 12,4 -0,5 7 4 20 11 E 1023,0 20 60 0,0
18.01.2018 10:00:00 10,0 -1,7 9 5 18 10 E 1023,4 20 33 0,0
18.01.2018 09:00:00 6,9 -2,2 9 5 18 10 E 1024,0 20 0 0,0
18.01.2018 08:00:00 5,8 -2,0 8 4 17 9 ENE 1024,0 20 0 0,0
18.01.2018 07:00:00 6,9 -1,2 9 5 19 10 E 1023,5 20 0 -
18.01.2018 06:00:00 6,7 -1,4 6 3 19 10 ESE 1023,5 20 0 0,0
18.01.2018 05:00:00 6,0 -1,2 12 7 20 11 ENE 1023,8 20 0 0,0
18.01.2018 04:00:00 6,0 -1,2 8 4 14 7 NE 1024,4 20 0 0,0
18.01.2018 03:00:00 5,6 -1,0 6 3 16 8 NNE 1024,9 20 0 0,0
18.01.2018 02:00:00 6,9 -1,0 11 6 23 12 NNE 1024,4 20 0 0,0
18.01.2018 01:00:00 7,0 -2,7 9 5 17 9 NNE 1025,0 20 0 -
18.01.2018 00:00:00 7,2 -3,6 5 3 16 9 SE 1025,1 20 0 0,0
17.01.2018 23:00:00 8,3 -3,6 9 5 20 11 ENE 1024,9 20 0 0,0
17.01.2018 22:00:00 6,9 -1,7 6 4 18 10 NE 1025,5 20 0 0,0
17.01.2018 21:00:00 8,3 -0,7 7 4 16 9 NE 1025,0 20 0 0,0
17.01.2018 20:00:00 8,2 1,9 5 3 10 5 N 1025,1 20 0 0,0
17.01.2018 19:00:00 10,0 3,0 7 4 17 9 N 1024,2 20 21 -
17.01.2018 18:00:00 12,9 3,6 9 5 23 13 NNE 1023,4 20 33 0,0
17.01.2018 17:00:00 14,5 3,6 13 7 25 13 NNE 1022,8 20 58 0,0
17.01.2018 16:00:00 15,4 3,6 12 7 26 14 NNE 1022,6 20 60 0,0
17.01.2018 15:00:00 15,3 3,8 10 6 29 16 N 1022,7 20 60 0,0
17.01.2018 14:00:00 14,0 3,4 13 7 27 15 NNE 1023,7 20 60 0,0
17.01.2018 13:00:00 13,3 6,2 5 3 14 7 NNE 1024,8 20 60 -
17.01.2018 12:00:00 10,9 7,6 5 3 10 6 ENE 1026,3 20 60 0,0
17.01.2018 11:00:00 8,3 7,4 3 2 11 6 ESE 1026,9 20 29 0,0
17.01.2018 10:00:00 6,4 5,5 7 4 19 11 NNE 1027,4 14 0 0,0
17.01.2018 09:00:00 6,3 5,5 9 5 23 13 NNE 1026,9 0,5 0 0,0
17.01.2018 08:00:00 6,9 5,9 10 6 21 12 N 1026,7 8 0 0,0
17.01.2018 07:00:00 7,0 6,1 9 5 17 9 NNW 1026,3 13 0 -
17.01.2018 06:00:00 7,1 6,2 11 6 19 10 NNW 1026,2 11 0 0,0
17.01.2018 05:00:00 7,4 6,5 6 3 19 10 N 1026,9 0,2 0 0,2
17.01.2018 04:00:00 7,3 6,4 4 2 21 11 N 1027,6 0,2 0 0,0
17.01.2018 03:00:00 7,2 6,2 11 6 27 14 NNW 1027,8 0,3 0 0,0
17.01.2018 02:00:00 6,8 5,9 10 5 24 13 NNW 1028,4 0,2 0 0,0
17.01.2018 01:00:00 6,5 5,6 9 5 26 14 N 1028,8 0,1 0 -
17.01.2018 00:00:00 5,5 4,5 14 7 26 14 NNW 1029,7 0,2 0 0,0
16.01.2018 23:00:00 5,9 3,9 12 7 27 15 N 1029,7 20 0 0,0
16.01.2018 22:00:00 6,9 3,9 13 7 26 14 N 1029,3 20 0 0,0
16.01.2018 21:00:00 7,5 4,1 13 7 23 12 N 1029,1 20 0 0,0
16.01.2018 20:00:00 7,7 4,1 7 4 21 11 N 1029,2 20 0 0,0
16.01.2018 19:00:00 8,8 4,3 8 4 16 9 NNW 1028,8 20 21 -
16.01.2018 18:00:00 11,1 4,3 8 4 19 10 NW 1028,0 20 30 0,0
16.01.2018 17:00:00 12,4 4,3 11 6 19 11 NW 1028,0 20 54 0,0
16.01.2018 16:00:00 13,4 2,1 8 4 17 9 WSW 1027,8 20 60 0,0
16.01.2018 15:00:00 12,7 -0,3 9 5 18 10 W 1028,5 20 60 0,0
16.01.2018 14:00:00 12,2 1,9 6 3 15 8 WSW 1029,6 20 60 0,0
16.01.2018 13:00:00 11,0 1,1 7 4 16 8 W 1031,0 20 60 -
16.01.2018 12:00:00 9,8 1,3 6 3 14 7 S 1031,9 20 60 0,0
16.01.2018 11:00:00 8,4 1,3 4 2 7 4 S 1032,2 20 60 0,0

tt = Température de l'air
td = dewpoint
ff = Vitesse du vent
fx = gusts
dd = Direction du vent
ppp = reduced air pressure
vv = visibility
sd = Ensoleillement
rr = Quantités de précipitations

stations d'obs. à proximité